SAUDISAT 1C (SO-50) 1 27607U 02058C 26255.07078318 .00000680 00000+0 97802-4 0 9994 2 27607 64.5512 220.1340 0072159 246.5319 112.8191 14.83206442277343 SAUDISAT 2 1 28371U 04025F 26255.26317521 .00000166 00000+0 48130-4 0 9991 2 28371 98.5564 257.5199 0025342 31.7773 328.4948 14.56724629178428 SAUDISAT 3 1 31118U 07012B 26255.30008282 .00000172 00000+0 36041-4 0 9994 2 31118 98.1538 205.7916 0013655 314.5231 45.4859 14.71469078 40555 PISAT 1 41784U 16059B 26255.25942266 .00000631 00000+0 11492-3 0 9990 2 41784 97.8244 252.0036 0027539 288.4502 71.3712 14.69120723532526 FLYING LAPTOP 1 42831U 17042G 26255.29319929 .00001599 00000+0 12760-3 0 9998 2 42831 97.4996 47.7012 0016221 183.7209 176.3898 15.01579794499526 SALSAT 1 46495U 20068K 26254.97802254 .00005968 00000+0 20261-3 0 9991 2 46495 97.8880 263.4175 0009469 9.1845 350.9566 15.30885844328635